Hobart, OK

6:33 AM CDT on September 26, 2016 (GMT -0500)
Hobart Municipal

Weather History for KHBR - March, 2013

Change the Weather History Date:

Saturday, March 2, 2013

  Actual Average Record
Temperature  
Mean Temperature 42 °F -  
Max Temperature 60 °F 54 °F 78 °F (2008)
Min Temperature 24 °F 30 °F 10 °F (2014)
Degree Days  
Heating Degree Days 23    
Moisture  
Dew Point 31 °F    
Average Humidity 74    
Maximum Humidity 96    
Minimum Humidity 39    
Precipitation  
Precipitation 0.00 in - - ()
Sea Level Pressure  
Sea Level Pressure 30.32 in    
Wind  
Wind Speed 7 mph (WSW)    
Max Wind Speed 14 mph    
Max Gust Speed 17 mph    
Visibility 8 miles    
Events      
Averages and records for this station are not official NWS values.
T = Trace of Precipitation, MM = Missing Value Source: NWS Daily Summary

Daily Weather History Graph

Daily Weather History Graph

Search for Another Location

Airport or City:

Trip Planner

Search our weather history database for the weather conditions in past years. The results will help you decide how hot, cold, wet, or windy it might be!

Date:

Astronomy

Mar. 02, 2013 Rise Set
Actual Time 7:03 AM CST 6:33 PM CST
Civil Twilight 6:38 AM CST 6:58 PM CST
Nautical Twilight 6:09 AM CST 7:27 PM CST
Astronomical Twilight 5:40 AM CST 7:57 PM CST
Moon 11:59 PM CST (3/2) 9:46 AM CST (3/2)
Length of Visible Light 12h 19m
Length of Day
11h 29m
Waning Gibbous, 74% of the Moon is Illuminated
Mar 2
Waning Gibbous
Mar 4
Last Quarter
Mar 11
New
Mar 19
First Quarter
Mar 27
Full

Hourly Weather History & Observations

Time (CST) Temp. Windchill Dew Point Humidity Pressure Visibility Wind Dir Wind Speed Gust Speed Precip Events Conditions
12:53 AM 28.0 °F 20.8 °F 26.1 °F 92% 30.39 in 7.0 mi NNW 6.9 mph - N/A   Clear
1:40 AM 30.2 °F 22.6 °F 26.6 °F 86% 30.38 in 7.0 mi North 8.1 mph - N/A   Mostly Cloudy
1:53 AM 30.0 °F 23.2 °F 28.0 °F 92% 30.41 in 7.0 mi North 6.9 mph - N/A   Overcast
2:53 AM 32.0 °F 24.8 °F 28.9 °F 88% 30.40 in 7.0 mi North 8.1 mph - N/A   Overcast
3:12 AM 30.2 °F 22.6 °F 28.4 °F 93% 30.37 in 7.0 mi North 8.1 mph - N/A   Scattered Clouds
3:53 AM 28.9 °F 21.1 °F 26.1 °F 89% 30.39 in 7.0 mi North 8.1 mph - N/A   Clear
4:53 AM 26.1 °F 19.4 °F 24.1 °F 92% 30.40 in 7.0 mi ENE 5.8 mph - N/A   Clear
5:53 AM 26.1 °F 19.4 °F 24.1 °F 92% 30.41 in 6.0 mi NW 5.8 mph - N/A   Clear
6:53 AM 24.1 °F 17.0 °F 23.0 °F 96% 30.43 in 5.0 mi NNW 5.8 mph - N/A   Clear
7:53 AM 28.0 °F 22.8 °F 25.0 °F 88% 30.43 in - NNE 4.6 mph - N/A   Clear
8:53 AM 34.0 °F - 30.0 °F 85% 30.44 in 5.0 mi Calm Calm - N/A   Clear
9:53 AM 37.0 °F - 30.9 °F 79% 30.43 in 8.0 mi Calm Calm - N/A   Clear
10:53 AM 41.0 °F 39.0 °F 32.0 °F 70% 30.41 in 10.0 mi SSW 3.5 mph - N/A   Clear
11:53 AM 44.1 °F 41.5 °F 33.1 °F 65% 30.39 in 10.0 mi Variable 4.6 mph - N/A   Clear
12:53 PM 48.9 °F - 34.0 °F 56% 30.34 in 10.0 mi SW 9.2 mph 17.3 mph N/A   Partly Cloudy
1:53 PM 52.0 °F - 33.1 °F 49% 30.29 in 10.0 mi SW 12.7 mph 17.3 mph N/A   Clear
2:53 PM 55.0 °F - 35.1 °F 47% 30.25 in 10.0 mi WSW 9.2 mph 17.3 mph N/A   Clear
3:53 PM 57.9 °F - 35.1 °F 42% 30.22 in 10.0 mi SW 8.1 mph - N/A   Clear
4:53 PM 60.1 °F - 35.1 °F 39% 30.21 in 10.0 mi WSW 4.6 mph - N/A   Clear
5:53 PM 55.9 °F - 39.0 °F 53% 30.20 in 10.0 mi South 8.1 mph - N/A   Clear
6:53 PM 48.2 °F - 37.4 °F 66% 30.18 in 10.0 mi SSE 9.2 mph - N/A   Clear
7:53 PM 46.0 °F 41.0 °F 36.0 °F 68% 30.21 in 10.0 mi South 10.4 mph - N/A   Clear
8:53 PM 45.0 °F 38.9 °F 35.1 °F 68% 30.20 in 10.0 mi South 12.7 mph - N/A   Clear
9:53 PM 44.1 °F 37.7 °F 34.0 °F 68% 30.21 in 10.0 mi South 12.7 mph - N/A   Clear
10:53 PM 41.0 °F 35.2 °F 34.0 °F 76% 30.20 in 10.0 mi South 9.2 mph - N/A   Clear
11:53 PM 41.0 °F 33.5 °F 33.1 °F 73% 30.17 in 10.0 mi South 13.8 mph - N/A   Clear